Total_Precipitation_Accumulation
0.14 0.13 0.13 0.12 0.12 0.09 0.07 0.07 0.09 0.12 0.11 0.10 0.16 0.24 0.34 0.40 0.38 0.44 0.26 0.20 0.27 0.24 0.06 0.02 0.02 0.02 0.02 0.07 0.14 0.21 0.39 0.34 0.35 0.38 0.31 0.22 0.06 0.09 0.18 0.35 0.26 0.15 0.15 0.15 0.17 0.19 0.06 0.02 0.06 0.22 0.19 0.10 0.03 0.02
0.14 0.13 0.11 0.11 0.10 0.09 0.07 0.07 0.07 0.07 0.09 0.09 0.10 0.15 0.23 0.35 0.50 0.70 0.62 0.24 0.25 0.39 0.21 0.06 0.01 0.00 0.01 0.03 0.13 0.30 0.41 0.47 0.30 0.30 0.25 0.18 0.17 0.20 0.16 0.26 0.63 0.28 0.09 0.06 0.03 0.06 0.03 0.01 0.04 0.12 0.07 0.06 0.06 0.04
0.11 0.09 0.10 0.11 0.10 0.09 0.06 0.05 0.05 0.06 0.06 0.08 0.10 0.11 0.16 0.22 0.43 0.84 0.89 0.37 0.47 0.82 0.49 0.09 0.04 0.00 0.00 0.01 0.07 0.27 0.24 0.55 0.76 0.54 0.46 0.35 0.36 0.28 0.26 0.30 0.63 0.54 0.30 0.21 0.08 0.02 0.01 0.03 0.03 0.05 0.05 0.01 0.02 0.01
0.10 0.12 0.08 0.08 0.10 0.09 0.07 0.05 0.04 0.03 0.05 0.07 0.09 0.11 0.12 0.17 0.30 0.75 1.05 0.75 0.38 0.68 0.39 0.08 0.00 0.00 0.00 0.00 0.03 0.05 0.08 0.22 0.32 0.47 0.50 0.34 0.16 0.12 0.21 0.19 0.28 0.65 0.66 0.25 0.14 0.15 0.07 0.04 0.04 0.04 0.03 0.03 0.01 0.00
0.17 0.14 0.13 0.11 0.12 0.14 0.15 0.12 0.08 0.06 0.05 0.06 0.09 0.11 0.12 0.16 0.24 0.63 0.86 0.62 0.41 0.29 0.29 0.13 0.02 0.01 0.02 0.00 0.01 0.02 0.12 0.14 0.23 0.38 0.32 0.18 0.10 0.14 0.10 0.16 0.42 0.44 0.79 0.61 0.54 0.28 0.22 0.11 0.08 0.04 0.03 0.01 0.02 0.00
0.24 0.17 0.13 0.12 0.11 0.10 0.10 0.13 0.11 0.11 0.09 0.08 0.07 0.13 0.15 0.24 0.56 1.06 1.52 0.93 0.57 0.37 0.73 0.37 0.18 0.06 0.05 0.01 0.02 0.05 0.08 0.15 0.29 0.37 0.27 0.14 0.11 0.23 0.22 0.13 0.16 0.19 0.51 0.66 0.86 0.57 0.47 0.17 0.15 0.02 0.02 0.02 0.01 0.01
0.18 0.14 0.13 0.11 0.10 0.10 0.10 0.10 0.10 0.07 0.12 0.13 0.11 0.14 0.21 0.38 0.77 1.00 0.56 0.22 0.22 0.71 1.46 0.44 0.08 0.09 0.04 0.05 0.06 0.12 0.20 0.35 0.32 0.32 0.19 0.09 0.08 0.24 0.20 0.06 0.02 0.18 0.19 0.38 0.88 0.96 1.11 0.72 0.58 0.34 0.14 0.03 0.00 0.02
0.15 0.14 0.14 0.10 0.06 0.07 0.10 0.12 0.13 0.11 0.11 0.19 0.16 0.21 0.32 0.55 1.02 0.72 0.21 0.27 0.41 0.92 0.92 0.44 0.15 0.28 0.25 0.31 0.17 0.17 0.30 0.39 0.53 0.38 0.17 0.05 0.04 0.15 0.14 0.01 0.01 0.03 0.02 0.13 0.16 0.14 0.39 0.39 0.20 0.09 0.02 0.00 0.02 0.02
0.19 0.19 0.18 0.16 0.14 0.13 0.11 0.12 0.17 0.21 0.24 0.33 0.38 0.60 1.40 2.14 1.52 0.41 0.21 0.36 0.37 0.62 0.48 0.17 0.07 0.22 0.23 0.52 0.44 0.26 0.28 0.51 0.29 0.27 0.16 0.14 0.11 0.13 0.09 0.04 0.03 0.02 0.01 0.01 0.00 0.01 0.02 0.01 0.00 0.00 0.00 0.00 0.01 0.01
0.25 0.20 0.19 0.16 0.15 0.19 0.18 0.19 0.26 0.37 0.68 0.99 1.73 2.56 2.12 0.90 0.21 0.51 1.53 1.21 0.95 0.76 0.35 0.11 0.10 0.17 0.17 0.19 0.51 0.58 0.33 0.23 0.31 0.11 0.06 0.11 0.09 0.09 0.08 0.04 0.02 0.01 0.00 0.00 0.00 0.00 0.00 0.00 0.00 0.00 0.00 0.00 0.01 0.01
0.20 0.20 0.25 0.20 0.14 0.16 0.27 0.33 0.59 1.40 2.31 2.07 1.69 0.80 0.32 0.25 0.31 0.89 1.34 0.75 0.49 0.24 0.06 0.02 0.06 0.16 0.17 0.26 0.35 0.51 0.57 0.17 0.13 0.08 0.09 0.14 0.16 0.12 0.05 0.02 0.01 0.00 0.00 0.00 0.00 0.00 0.00 0.00 0.00 0.00 0.00 0.00 0.00 0.01
0.16 0.15 0.15 0.20 0.22 0.25 0.42 0.73 1.26 1.58 1.22 0.46 0.43 0.46 0.52 0.55 0.79 0.82 0.60 0.31 0.08 0.02 0.01 0.01 0.02 0.13 0.20 0.38 0.63 0.57 0.47 0.40 0.19 0.18 0.19 0.23 0.21 0.08 0.02 0.02 0.01 0.00 0.00 0.00 0.00 0.00 0.00 0.00 0.00 0.01 0.01 0.01 0.02 0.02
0.13 0.16 0.18 0.25 0.29 0.40 0.71 0.87 0.59 0.22 0.08 0.11 0.20 0.32 0.38 0.45 0.51 0.34 0.20 0.10 0.09 0.08 0.01 0.01 0.05 0.07 0.20 0.27 0.64 0.64 0.44 0.31 0.25 0.79 0.54 0.18 0.09 0.04 0.02 0.01 0.01 0.00 0.00 0.00 0.00 0.00 0.00 0.01 0.01 0.01 0.02 0.03 0.03 0.04
0.24 0.32 0.32 0.29 0.34 0.54 0.76 0.60 0.50 0.33 0.21 0.17 0.16 0.20 0.20 0.08 0.13 0.07 0.06 0.03 0.02 0.03 0.02 0.04 0.04 0.07 0.08 0.19 0.25 0.26 0.22 0.19 0.29 0.18 0.19 0.16 0.08 0.05 0.02 0.01 0.01 0.01 0.02 0.02 0.03 0.02 0.03 0.03 0.03 0.05 0.07 0.06 0.05 0.09
0.26 0.28 0.35 0.41 0.57 0.67 0.65 0.69 0.44 0.24 0.11 0.06 0.01 0.01 0.03 0.05 0.05 0.05 0.04 0.03 0.02 0.05 0.05 0.12 0.13 0.11 0.09 0.12 0.10 0.16 0.22 0.22 0.12 0.10 0.09 0.07 0.03 0.01 0.02 0.01 0.01 0.02 0.03 0.05 0.04 0.04 0.05 0.07 0.10 0.14 0.15 0.15 0.14 0.17
0.19 0.51 0.62 0.51 0.50 0.60 0.63 0.40 0.12 0.02 0.00 0.00 0.03 0.06 0.08 0.08 0.08 0.07 0.09 0.08 0.07 0.13 0.18 0.26 0.23 0.17 0.15 0.08 0.12 0.09 0.16 0.16 0.10 0.08 0.06 0.02 0.02 0.03 0.03 0.04 0.04 0.05 0.07 0.07 0.07 0.09 0.12 0.16 0.24 0.36 0.43 0.42 0.43 0.40
0.36 0.72 0.50 0.43 0.50 0.49 0.24 0.03 0.01 0.00 0.00 0.01 0.05 0.07 0.08 0.07 0.09 0.11 0.13 0.12 0.15 0.25 0.25 0.23 0.22 0.13 0.28 0.06 0.04 0.05 0.08 0.11 0.12 0.07 0.04 0.02 0.04 0.06 0.08 0.08 0.09 0.08 0.10 0.12 0.12 0.14 0.17 0.23 0.27 0.31 0.41 0.53 0.51 0.53
0.17 0.18 0.18 0.19 0.21 0.11 0.05 0.01 0.00 0.00 0.02 0.06 0.06 0.11 0.05 0.08 0.08 0.09 0.12 0.14 0.16 0.13 0.07 0.09 0.04 0.01 0.03 0.04 0.07 0.14 0.15 0.13 0.05 0.05 0.05 0.05 0.05 0.05 0.08 0.08 0.09 0.10 0.11 0.13 0.13 0.17 0.19 0.20 0.21 0.27 0.28 0.33 0.33 0.39
0.04 0.03 0.03 0.01 0.01 0.02 0.04 0.00 0.00 0.01 0.06 0.07 0.08 0.08 0.07 0.09 0.13 0.12 0.13 0.14 0.10 0.04 0.06 0.11 0.13 0.09 0.11 0.13 0.17 0.16 0.16 0.17 0.17 0.14 0.11 0.11 0.10 0.09 0.10 0.10 0.10 0.11 0.14 0.18 0.17 0.17 0.20 0.22 0.22 0.23 0.25 0.26 0.23 0.31
0.04 0.03 0.01 0.01 0.01 0.00 0.00 0.00 0.00 0.00 0.03 0.03 0.04 0.04 0.05 0.12 0.13 0.11 0.10 0.09 0.07 0.06 0.10 0.11 0.15 0.16 0.20 0.22 0.24 0.27 0.23 0.18 0.17 0.21 0.14 0.09 0.11 0.11 0.12 0.12 0.14 0.16 0.15 0.16 0.19 0.18 0.18 0.20 0.25 0.24 0.23 0.26 0.20 0.23
0.01 0.00 0.00 0.00 0.00 0.00 0.01 0.01 0.01 0.01 0.02 0.03 0.04 0.02 0.04 0.02 0.03 0.06 0.07 0.04 0.04 0.12 0.16 0.17 0.19 0.20 0.21 0.23 0.20 0.17 0.14 0.10 0.10 0.10 0.12 0.12 0.12 0.11 0.14 0.14 0.11 0.11 0.12 0.16 0.16 0.22 0.21 0.18 0.23 0.23 0.19 0.18 0.16 0.11
0.00 0.00 0.00 0.00 0.00 0.00 0.02 0.02 0.01 0.01 0.01 0.04 0.05 0.02 0.02 0.02 0.02 0.01 0.01 0.02 0.11 0.21 0.21 0.21 0.20 0.20 0.15 0.15 0.15 0.13 0.13 0.09 0.07 0.07 0.08 0.10 0.11 0.11 0.14 0.16 0.14 0.14 0.15 0.17 0.15 0.15 0.17 0.16 0.13 0.09 0.08 0.08 0.06 0.06
0.00 0.00 0.00 0.00 0.00 0.00 0.04 0.08 0.03 0.05 0.04 0.05 0.01 0.02 0.04 0.03 0.03 0.01 0.02 0.07 0.17 0.22 0.19 0.18 0.17 0.12 0.12 0.14 0.09 0.08 0.10 0.06 0.08 0.12 0.12 0.13 0.14 0.16 0.15 0.16 0.17 0.16 0.14 0.19 0.16 0.14 0.11 0.08 0.06 0.04 0.03 0.03 0.02 0.03
0.00 0.00 0.00 0.00 0.00 0.01 0.02 0.01 0.00 0.01 0.01 0.01 0.00 0.02 0.02 0.01 0.00 0.00 0.04 0.10 0.17 0.16 0.12 0.11 0.14 0.13 0.06 0.04 0.05 0.06 0.10 0.08 0.07 0.09 0.13 0.10 0.11 0.15 0.14 0.15 0.15 0.16 0.15 0.14 0.10 0.08 0.07 0.05 0.03 0.02 0.01 0.01 0.01 0.01
0.00 0.00 0.00 0.00 0.00 0.00 0.00 0.00 0.00 0.00 0.01 0.00 0.00 0.02 0.02 0.00 0.00 0.01 0.03 0.08 0.05 0.04 0.06 0.06 0.02 0.02 0.03 0.04 0.04 0.04 0.04 0.05 0.05 0.05 0.12 0.14 0.15 0.14 0.14 0.15 0.15 0.17 0.13 0.08 0.08 0.06 0.06 0.04 0.03 0.02 0.01 0.00 0.00 0.00
0.00 0.00 0.00 0.00 0.00 0.00 0.00 0.00 0.00 0.00 0.00 0.00 0.01 0.01 0.00 0.00 0.00 0.02 0.04 0.06 0.04 0.04 0.04 0.06 0.06 0.02 0.02 0.02 0.03 0.03 0.04 0.05 0.04 0.04 0.10 0.11 0.14 0.16 0.15 0.13 0.12 0.12 0.10 0.07 0.05 0.04 0.04 0.04 0.03 0.02 0.02 0.02 0.01 0.00
0.00 0.00 0.00 0.00 0.00 0.00 0.00 0.00 0.00 0.00 0.00 0.00 0.00 0.00 0.00 0.00 0.02 0.04 0.04 0.04 0.03 0.04 0.03 0.03 0.02 0.02 0.03 0.04 0.05 0.06 0.04 0.03 0.03 0.05 0.08 0.07 0.07 0.07 0.07 0.08 0.09 0.14 0.09 0.06 0.04 0.03 0.02 0.02 0.02 0.02 0.01 0.01 0.01 0.00
0.00 0.00 0.00 0.00 0.00 0.00 0.00 0.00 0.00 0.00 0.01 0.00 0.00 0.00 0.00 0.01 0.04 0.06 0.03 0.03 0.03 0.03 0.02 0.02 0.01 0.01 0.01 0.01 0.02 0.02 0.02 0.03 0.02 0.02 0.02 0.01 0.01 0.02 0.04 0.03 0.03 0.02 0.02 0.02 0.02 0.01 0.01 0.01 0.00 0.00 0.00 0.00 0.00 0.00
0.00 0.00 0.00 0.00 0.00 0.00 0.01 0.01 0.01 0.02 0.02 0.01 0.00 0.02 0.03 0.07 0.08 0.05 0.04 0.04 0.05 0.04 0.03 0.03 0.05 0.02 0.01 0.00 0.00 0.00 0.00 0.01 0.02 0.02 0.02 0.01 0.00 0.01 0.01 0.01 0.02 0.02 0.01 0.01 0.01 0.01 0.00 0.00 0.00 0.00 0.00 0.00 0.00 0.00
0.00 0.00 0.00 0.00 0.01 0.02 0.06 0.03 0.03 0.02 0.01 0.00 0.01 0.03 0.04 0.10 0.14 0.07 0.05 0.04 0.03 0.02 0.02 0.01 0.01 0.01 0.01 0.01 0.00 0.00 0.00 0.01 0.01 0.01 0.01 0.01 0.01 0.01 0.01 0.01 0.01 0.01 0.01 0.00 0.00 0.01 0.01 0.01 0.01 0.00 0.00 0.00 0.00 0.00
0.00 0.00 0.00 0.00 0.03 0.05 0.04 0.02 0.01 0.01 0.00 0.00 0.00 0.00 0.03 0.06 0.06 0.05 0.03 0.04 0.04 0.04 0.03 0.01 0.00 0.00 0.00 0.00 0.01 0.01 0.00 0.00 0.00 0.01 0.01 0.01 0.01 0.01 0.01 0.00 0.00 0.01 0.01 0.01 0.00 0.00 0.00 0.01 0.00 0.00 0.00 0.00 0.00 0.00
0.00 0.00 0.00 0.01 0.04 0.03 0.05 0.03 0.00 0.01 0.00 0.00 0.01 0.01 0.02 0.01 0.02 0.03 0.03 0.04 0.06 0.02 0.01 0.01 0.00 0.00 0.00 0.00 0.00 0.00 0.00 0.00 0.00 0.00 0.00 0.01 0.01 0.01 0.00 0.00 0.00 0.00 0.00 0.00 0.00 0.00 0.00 0.01 0.01 0.01 0.01 0.00 0.00 0.00
0.00 0.00 0.00 0.00 0.01 0.01 0.02 0.01 0.00 0.00 0.01 0.01 0.01 0.02 0.02 0.01 0.02 0.03 0.03 0.04 0.04 0.01 0.01 0.00 0.00 0.00 0.00 0.00 0.00 0.00 0.00 0.00 0.00 0.00 0.00 0.00 0.00 0.00 0.00 0.01 0.00 0.00 0.00 0.00 0.00 0.00 0.00 0.00 0.00 0.00 0.00 0.00 0.00 0.00